Lid_Strength_Index
3 3 3 3 3 3 4 4 6 8 7 5 5 2 3 2 2 2 3 3 3 3 3 2 2 1 0 1 1 1 0 -0 -0 -0 -0 -0 0 -0
4 3 3 4 3 3 4 4 5 6 8 5 4 3 3 3 3 3 3 3 3 3 2 2 2 2 1 1 1 2 0 1 1 1 1 0 0 0
3 3 3 3 3 3 3 4 4 4 6 5 4 3 3 3 3 2 2 2 2 3 3 3 3 3 2 2 2 2 1 1 1 2 2 2 1 1
3 3 3 3 3 3 4 4 4 4 6 7 6 5 4 2 2 2 3 2 2 3 2 3 3 4 4 4 3 3 3 2 3 3 3 3 3 2
2 2 3 3 3 3 4 4 4 4 5 6 7 5 5 4 4 3 3 2 3 3 4 4 4 4 4 4 4 3 4 4 5 6 5 4 3 3
3 3 3 3 3 4 4 4 5 5 5 6 6 6 5 5 4 5 5 3 4 3 3 4 5 4 3 3 3 3 3 5 7 8 7 7 6 5
4 3 3 4 5 5 6 6 6 6 6 6 6 6 6 6 7 5 6 4 3 3 4 3 3 3 2 1 1 1 3 6 8 8 7 8 8 8
4 4 4 4 5 6 5 5 5 7 7 7 7 7 6 6 6 6 7 6 7 3 4 4 3 3 2 2 2 4 6 7 8 8 8 8 9 9
5 5 5 5 6 6 6 6 6 6 6 6 7 6 6 6 6 7 7 7 6 5 5 6 3 4 2 2 4 5 7 8 8 8 8 9 9 10
7 6 7 7 7 8 8 6 5 5 4 5 5 5 5 5 5 6 6 6 6 5 4 6 3 3 2 1 3 6 8 8 8 8 9 9 11 10
8 8 8 7 9 9 8 7 7 6 6 7 7 8 9 9 8 6 7 8 8 5 3 5 3 2 2 1 0 6 7 8 8 8 9 10 11 11
9 8 8 9 10 10 8 9 10 10 9 8 7 7 6 5 8 6 6 8 7 7 3 4 2 4 4 1 1 4 4 8 9 9 9 10 11 4
9 8 7 10 10 11 10 9 11 10 10 9 8 7 6 4 4 4 5 5 6 6 3 3 4 5 5 5 3 3 4 6 5 6 10 11 10 4
10 8 8 11 11 11 10 11 11 10 10 10 11 10 8 6 5 3 4 5 4 4 3 3 4 4 5 5 5 4 4 4 4 6 7 10 10 10
9 9 10 11 10 10 11 11 11 11 12 13 13 11 9 7 3 3 3 3 3 3 3 2 3 3 5 5 6 3 5 4 4 5 6 6 6 5
11 10 11 11 11 11 9 10 11 11 12 13 13 12 10 9 6 4 4 3 3 4 3 1 2 2 4 4 4 4 4 4 5 5 6 5 5 4
11 11 12 13 12 12 12 12 13 13 14 14 14 13 13 11 10 7 4 4 4 5 4 1 1 3 4 3 4 3 3 4 4 5 6 7 6 5
12 12 13 14 13 12 12 12 12 14 14 15 14 14 14 13 12 9 7 4 5 5 4 3 2 2 5 6 8 4 3 3 4 5 6 7 7 6
13 12 13 13 14 13 12 13 14 14 14 15 15 15 15 14 13 11 8 7 3 3 4 2 2 3 5 6 7 11 6 4 5 4 5 7 8 8
13 13 13 12 13 13 13 13 13 14 15 16 16 16 16 15 14 12 10 8 4 3 3 2 2 3 4 5 7 9 13 5 5 9 10 10 12 11
14 13 13 13 13 13 13 13 14 14 15 16 17 17 16 15 15 12 10 10 7 3 3 3 2 9 5 5 7 10 10 11 8 9 9 9 9 9
14 14 13 13 13 13 13 13 14 14 15 17 18 17 16 15 14 12 10 8 5 2 2 3 3 3 2 6 10 11 10 10 11 12 12 12 8 8
14 14 13 13 13 13 13 14 14 14 15 17 18 18 17 15 13 12 10 7 3 2 2 3 5 5 6 9 11 10 11 12 13 14 14 13 12 11